CubeBel-2 (EU11S)
1 57175U 23091K   26210.24647882  .00014787  00000-0  50885-3 0  9998
2 57175  97.5028 273.8615 0008137 334.0923  25.9909 15.30133988170736
RS-38S
1 57189U 23091Z   26210.27907494  .00019639  00000-0  53895-3 0  9999
2 57189  97.5073 280.6402 0005250 276.0405  84.0240 15.37287128171158
SONATE-2
1 59112U 24043Q   26209.37644780  .00048955  00000-0  56321-3 0  9990
2 59112  97.5569   2.4076 0005966  60.0981 300.0868 15.61846313134315
GRBBeta
1 60237U 24128C   26210.02855335  .00004181  00000-0  28907-3 0  9990
2 60237  61.9898  69.4378 0035110 143.7387 216.6096 15.06896799112577
Curium One
1 60242U 24128H   26209.61428573  .00008635  00000-0  49106-3 0  9991
2 60242  61.9785  58.9878 0034630 139.1537 221.2164 15.13043795112721
ROBUSTA-3A
1 60243U 24128J   26210.13191571  .00009104  00000-0  52898-3 0  9990
2 60243  61.9863  59.8603 0036179 136.9309 223.4628 15.12175738112762
CatSat
1 60246U 24125J   26210.11981955  .00087435  00000-0  90963-3 0  9999
2 60246  97.2035  63.3221 0017865  32.3322 327.9029 15.64107271113938
HYPERVIEW-1G (RS66S)
1 61772U 24199AP  26210.09997410  .00648056  17298-3  18668-2 0  9998
2 61772  97.2763  92.3720 0007087 135.5420 224.6425 15.93042878141305
AO-123
1 61781U 24199AY  26210.25076789  .00008544  00000-0  24334-3 0  9993
2 61781  97.2943  78.5462 0014537 150.7926 209.4134 15.36240151140388
JINJUSat 1B
1 63210U 25052A   26209.95549097  .00018114  00000-0  53937-3 0  9998
2 63210  97.3954 106.7925 0001324 335.3130  24.8050 15.34756067 76500
NUSHSAT 1
1 63211U 25052B   26210.18800621  .00024450  00000-0  66415-3 0  9994
2 63211  97.3927 107.7456 0001128   7.1602 352.9659 15.37570435 76596
TEVEL2-4
1 63213U 25052D   26209.43826483  .00022220  00000-0  63496-3 0  9995
2 63213  97.3847 105.9274 0001981  27.0407 333.0939 15.36007185 76449
TEVEL2-5
1 63214U 25052E   26210.18036751  .00021396  00000-0  61479-3 0  9993
2 63214  97.3846 106.6071 0001969  28.2416 331.8935 15.35842074 76558
TEVEL2-6
1 63215U 25052F   26210.19366483  .00021431  00000-0  61651-3 0  9995
2 63215  97.3849 106.6050 0001979  27.7874 332.3475 15.35806168 76551
TEVEL2-1
1 63217U 25052H   26210.17281426  .00020522  00000-0  60159-3 0  9990
2 63217  97.3822 106.1561 0002719  29.9792 330.1607 15.35220589 76530
TEVEL2-3
1 63218U 25052J   26209.25330847  .00021880  00000-0  64052-3 0  9994
2 63218  97.3829 105.2635 0002683  38.2462 321.8971 15.35250303 76399
TEVEL2-2
1 63219U 25052K   26210.17283836  .00020808  00000-0  60969-3 0  9995
2 63219  97.3823 106.1599 0002694  30.3500 329.7899 15.35233218 76539
TEVEL2-9
1 63237U 25052AD  26209.55325364  .00018312  00000-0  57373-3 0  9990
2 63237  97.3889 104.8221 0006100  18.0105 342.1352 15.33120867 76365
TEVEL2-7
1 63238U 25052AE  26210.19005795  .00018695  00000-0  59123-3 0  9995
2 63238  97.3885 105.3556 0006097  15.8548 344.2884 15.32817228 76456
TEVEL2-8
1 63239U 25052AF  26210.19870679  .00018547  00000-0  58680-3 0  9990
2 63239  97.3890 105.3400 0006090  16.3642 343.7795 15.32804227 76455
SPIRONE
1 66657U 25274H   26210.05832970  .00001865  00000-0  18150-3 0  9993
2 66657  97.7467 138.7541 0010714 230.6112 129.4159 14.93700140 36479
K-HERO
1 66660U 25274L   26209.78352884  .00001578  00000-0  15283-3 0  9991
2 66660  97.7477 138.6745 0012426 237.1372 122.8652 14.94104539 36444
SNUGLITE-III DURI
1 66661U 25274M   26209.36860637  .00001738  00000-0  16766-3 0  9991
2 66661  97.7475 138.2861 0013012 239.7857 120.2075 14.94127717 36383
SAKHACUBE-CHOLBON
1 67290U 25313AU  26210.14777922  .00011306  00000-0  44721-3 0  9990
2 67290  97.3923 284.6735 0008843 197.1973 162.8967 15.25592463 32370
RS95S (QMR-KWT-2)
1 67291U 25313AV  26210.15865887  .00016701  00000-0  62557-3 0  9991
2 67291  97.3917 284.9565 0008646 194.4676 165.6317 15.27316022 32398
Ten-Koh2
1 68261U 25241B   26210.04603015  .00007407  00000-0  31199-3 0  9991
2 68261  51.6557 120.3460 0005029 276.8219  83.2187 15.24325185 21290
JACK-002
1 68417U 26067B   26209.38199083  .00007310  00000-0  34386-3 0  9995
2 68417  97.4585 167.4825 0003813 111.8745 248.2896 15.19857830 18208
DISCO 2
1 68431U 26067R   26210.13460395  .00008781  00000-0  41470-3 0  9998
2 68431  97.4622 168.2173 0002275 147.8906 212.2467 15.19661022 18313
HADES-SA (SpinnyONE)
1 68446U 26067AG  26209.83422399  .00021513  00000-0  98761-3 0  9994
2 68446  97.4419 167.5514 0004086 303.6078  56.4767 15.20418499 18252
PARUS-6U1
1 68456U 26067AS  26209.32890062  .00005804  00000-0  28941-3 0  9993
2 68456  97.4574 167.0771 0003554 288.0460  72.0387 15.17916724 18178
SAL-E
1 68458U 26067AU  26209.38165797  .00008709  00000-0  42758-3 0  9990
2 68458  97.4500 167.0439 0003818 302.7355  57.3510 15.18310518 18185
FSI-SAT 2
1 68792U 26088A   26209.85168173  .00003587  00000-0  24239-3 0  9990
2 68792  97.5110 358.0849 0013357 330.3420  29.7049 15.07129780 14565
OrigamiSat 2
1 68795U 26088D   26210.19830424  .00013469  00000-0  83937-3 0  9997
2 68795  97.5116 358.6984 0013316 295.5613  64.4239 15.09602578 14639
ARICA 2
1 68796U 26088E   26210.28051899  .00004618  00000-0  29768-3 0  9997
2 68796  97.5112 358.7268 0014036 296.7301  63.2491 15.08727547 14640
WASEDA-SAT-ZERO-II
1 68797U 26088F   26210.26847382  .00006203  00000-0  39470-3 0  9999
2 68797  97.5109 358.7399 0013759 296.1393  63.8420 15.09066627 14642
MANGARO-II-Piscus
1 68798U 26088G   26209.39514417  .00003438  00000-0  22051-3 0  9996
2 68798  97.5115 357.9240 0017448 302.4549  57.4992 15.09044640 14519
IO-86
1 40931U          26199.45381863  .00000000  00000-0  77536-4 0    07
2 40931   6.0006 322.6653 0012733 338.8432 273.6875 14.79294310    03
LILIUM-4                
1 71922C 26067AC  26089.50133053 -.00014632  00000+0 -74472-3 0    04
2 71922  97.4497  49.1617 0004341   5.9603 355.7042 15.16896692    16
